Regional Weather Roundup
Issued by NWS

Home | Current Version | Previous Version | Text Only | Print | Product List | Glossary Off
Versions: 1 2 3 4 5 6 7 8 9 10 11 12 13 14 15 16 17 18 19 20 21 22 23 24 25 26 27 28 29 30 31 32 33 34 35 36 37 38 39 40 41 42 43 44 45 46 47 48 49 50

000
ASUS43 KLOT 271809
RWRIL

ILLINOIS REGIONAL WEATHER ROUNDUP
NATIONAL WEATHER SERVICE CHICAGO/ROMEOVILLE IL
100 PM CDT THU JUL 27 2017

NOTE: "FAIR" INDICATES FEW OR NO CLOUDS BELOW 12,000 FEET WITH NO
SIGNIFICANT WEATHER AND/OR OBSTRUCTIONS TO VISIBILITY.

* THESE STATIONS ARE NOT UNDER NWS QUALITY CONTROL. THEY ALSO MAY NOT
  REPORT WEATHER SUCH AS PRECIPITATION OR FOG.

ILZ001-002-007-009-015-016-024-271900-
NORTHWEST ILLINOIS

CITY           SKY/WX    TMP DP  RH WIND       PRES   REMARKS
MOLINE         PTSUNNY   84  70  62 NE8       29.95F HX  88
6HR MIN TEMP:  72; 6HR MAX TEMP:  84;

STERLING*      CLOUDY    81  73  76 NE8       29.96F HX  86
SAVANNA*       MOSUNNY   82  70  68 NE13      29.96F HX  86
$$

ILZ003-004-008-010-011-017-018-271900-
NORTH CENTRAL ILLINOIS

CITY           SKY/WX    TMP DP  RH WIND       PRES   REMARKS
ROCKFORD       PTSUNNY   82  68  62 NE12      29.97F HX  85
6HR MIN TEMP:  74; 6HR MAX TEMP:  84;

FREEPORT*      MOSUNNY   79  70  73 NE7       30.00S HX  82
ROCHELLE*      CLOUDY    77  70  80 NE10      29.97F
DE KALB*       CLOUDY    78  71  80 NE8       29.97F
PERU*          CLOUDY    79  71  76 N9        29.94F HX  82
$$

ILZ005-006-012>014-019>023-271900-
NORTHEAST ILLINOIS

CITY           SKY/WX    TMP DP  RH WIND       PRES   REMARKS
CHICAGO-OHARE  PTSUNNY   80  67  64 NE15      29.95S HX  82
6HR MIN TEMP:  74; 6HR MAX TEMP:  82;

CHICAGO-MIDWAY PTSUNNY   81  70  69 NE12      29.94S HX  84
6HR MIN TEMP:  76; 6HR MAX TEMP:  81;

AURORA         PTSUNNY   82  70  66 NE12      29.95S HX  86
6HR MIN TEMP:  72; 6HR MAX TEMP:  83;

LANSING*       CLOUDY    74  69  82 N10G16    29.94F
JOLIET*        PTSUNNY   83  73  72 NE7       29.93F HX  88
WAUKEGAN       PTSUNNY   74  68  81 NE12      29.96F
6HR MIN TEMP:  71; 6HR MAX TEMP:  76;

DUPAGE AIRPORT CLOUDY    82  70  66 NE8       29.94F HX  86
6HR MIN TEMP:  72; 6HR MAX TEMP:  83;

KANKAKEE*      CLOUDY    80  73  79 NE7       29.93F HX  83
WHEELING       CLOUDY    78  70  76 NE13      29.97S HX  80
6HR MIN TEMP:  73; 6HR MAX TEMP:  79;

MORRIS*        PTSUNNY   80  73  80 CALM      29.92F HX  83
ROMEOVILLE*    PTSUNNY   81  68  65 NE8       29.93F HX  84
NORTHERLY ISL    N/A     75  68  78 NW15        N/A
$$

LMZ740>746-271900-
SOUTHERN LAKE MICHIGAN

STATION/POSITION SKY/WX   TEMP    WIND        PRES    VSBY  WAVE
                          AIR SEA DIR/SP/G                  HT/PER
                          (F)     (DEG/KT/KT) (MB)    (MI)  (FT/S)
SOUTHERN BUOY              71 71   10/ 14/ 14 1014.3          1/ 3
WILMETTE HARBOR            71 72  350/ 14/ 17   N/A           3/ 4
HARRISON CRIB              72     360/ 14/ 17   N/A
BURNHAM HARBOR             75                   N/A
CALUMET HARBOR             74     340/ 11/ 16 1013.7F
BURNS HARBOR               74     360/ 10/ 13 1014.2S
MICHIGAN CITY              76     350/ 11/ 12   N/A
MICHIGAN CITY 6N           74 75   10/ 12/ 14   N/A           1
ST. JOSEPH                 73 75   30/ 12/ 14 1013.2          1
$$

ILZ025>027-034>036-040-047-049-050-058-095>099-271900-
WEST-CENTRAL ILLINOIS

CITY           SKY/WX    TMP DP  RH WIND       PRES   REMARKS
QUINCY         CLOUDY    80  74  81 NE9       29.94S HX  85
GALESBURG*     CLOUDY    79  72  78 NE7       29.97S HX  82
MACOMB*        PTSUNNY   80  72  77 N10       29.97S HX  84
JACKSONVILLE*  RAIN      76  74  94 CALM      29.93S
PITTSFIELD*    CLOUDY    78  75  92 N8        29.94S HX  80
$$

ILZ028>032-037-038-041>044-048-051>054-059>061-271900-
CENTRAL ILLINOIS

CITY           SKY/WX    TMP DP  RH WIND       PRES   REMARKS
PONTIAC        CLOUDY    79  76  92 NE3       29.94F HX  83
BLOOMINGTON    CLOUDY    81  72  74 NW8       29.94F HX  85
DECATUR        CLOUDY    77  73  87 W7        29.93F
PEORIA         CLOUDY    82  73  74 N7        29.93F HX  87
6HR MIN TEMP:  73; 6HR MAX TEMP:  82;

LACON*         CLOUDY    79  73  82 N6        29.93S HX  82
LINCOLN*       CLOUDY    82  76  82 NW5       29.92S HX  88
SPRINGFIELD    CLOUDY    81  76  84 W6        29.93F HX  87
6HR MIN TEMP:  75; 6HR MAX TEMP:  81; 6HR PCP:  0.15;

TAYLORVILLE    CLOUDY    76  75  96 SW5       29.93F
6HR MIN TEMP:  72; 6HR MAX TEMP:  77; 6HR PCP:  0.51;

$$

ILZ033-039-045-046-055>057-062-063-271900-
EAST-CENTRAL ILLINOIS

CITY           SKY/WX    TMP DP  RH WIND       PRES   REMARKS
CHAMPAIGN      CLOUDY    81  74  79 VRB7      29.92F HX  86
RANTOUL*       CLOUDY    82  75  81 NW5       29.92F HX  88
MATTOON        CLOUDY    77  74  90 W5        29.93F
PARIS*         CLOUDY    78  73  85 W14G22    29.94F HX  81
$$

ILZ079-100>102-271900-
SOUTHWEST ILLINOIS

CITY           SKY/WX    TMP DP  RH WIND       PRES   REMARKS
ALTON          CLOUDY    77  75  94 SW10      29.94F
BELLEVILLE     PTSUNNY   79  75  86 SW5       29.96F HX  83
CAHOKIA*       CLOUDY    81  73  76 SW7       29.94F HX  86
SPARTA*        CLOUDY    80  74  83 CALM      29.98F HX  84
$$

ILZ064>066-069>071-074>076-080>082-084>086-088>090-092>094-271900-
SOUTH-CENTRAL ILLINOIS

CITY           SKY/WX    TMP DP  RH WIND       PRES   REMARKS
CARBONDALE     LGT RAIN  83  77  82 VRB3      29.97F HX  92
6HR MIN TEMP:  78; 6HR MAX TEMP:  83; 6HR PCP: TRACE;

CAIRO*         PTSUNNY   86  78  78 W7        29.96F HX  98
EFFINGHAM*     CLOUDY    81  74  78 SW9       29.96F HX  86
MARION         CLOUDY    84  81  89 W6        29.98S HX  98
MT. VERNON     CLOUDY    80  76  87 CALM      29.97F HX  86
CENTRALIA*     CLOUDY    81  76  86 SW7       29.96F HX  87
SALEM*         CLOUDY    82  75  80 SW5       29.96F HX  89
METROPOLIS*    PTSUNNY   89  78  70 W6        29.97S HX 102
$$

ILZ067-068-072-073-078-083-087-091-271900-
SOUTHEAST ILLINOIS

CITY           SKY/WX    TMP DP  RH WIND       PRES   REMARKS
LAWRENCEVILLE  CLOUDY    81  75  82 S5        29.95F HX  87
FLORA*         CLOUDY    82  76  82 SW6       29.96F HX  88
FAIRFIELD*     CLOUDY    79  76  91 CALM      29.95F HX  83
HARRISBURG*    CLOUDY    84  76  78 NW8       29.96F HX  93
ROBINSON*      CLOUDY    78  73  86 CALM      29.96F HX  80
CARMI*         CLOUDY    80  77  89 CALM      29.95F HX  87
$$

ABBREVIATIONS USED IN REMARKS
   TC - TEMPERATURE IN CELSIUS
  WCI - WIND CHILL INDEX
   HX - HEAT INDEX
  VSB - VISIBILITY
$$





USA.gov is the U.S. government's official web portal to all federal, state and local government web resources and services.